• In Belarus
  • List of Countries
  • For 7 days
  • Water Temperature
  • Satellite Maps
  • Weather Map
  • Weather Widgets
  • user-avatar
    Login

    Hourly Weather Baraki Barak

    Today, 22 February, Thursday

    Time Temperature Precipitation Wind Pressure Humidity
    00:00 +4°C° 0 mm 1 mps 595 mmHg 57%
    01:00 +4°C° 0 mm 1 mps 595 mmHg 56%
    02:00 +3°C° 0 mm 1 mps 594 mmHg 56%
    03:00 +3°C° 0 mm 1 mps 594 mmHg 55%
    04:00 +3°C° 0 mm 1 mps 594 mmHg 53%
    05:00 +3°C° 0 mm 1 mps 594 mmHg 52%
    06:00 +4°C° 0 mm 1 mps 594 mmHg 51%
    07:00 +4°C° 0 mm 1 mps 594 mmHg 50%
    08:00 +4°C° 0 mm 1 mps 594 mmHg 49%
    09:00 +5°C° 0 mm 1 mps 595 mmHg 45%
    10:00 +6°C° 0 mm 1 mps 595 mmHg 41%
    11:00 +8°C° 0 mm 1 mps 595 mmHg 38%
    12:00 +8°C° 0 mm 1 mps 595 mmHg 36%
    13:00 +9°C° 0 mm 1 mps 595 mmHg 35%
    14:00 +10°C° 0 mm 1 mps 595 mmHg 34%
    15:00 +10°C° 0 mm 1 mps 595 mmHg 35%
    16:00 +10°C° 0 mm 1 mps 595 mmHg 35%
    17:00 +9°C° 0 mm 1 mps 594 mmHg 36%
    18:00 +8°C° 0 mm 1 mps 595 mmHg 39%
    19:00 +7°C° 0 mm 1 mps 595 mmHg 41%
    20:00 +6°C° 0 mm 1 mps 595 mmHg 43%
    21:00 +6°C° 0 mm 1 mps 595 mmHg 44%
    22:00 +6°C° 0 mm 1 mps 595 mmHg 44%
    23:00 +5°C° 0 mm 1 mps 595 mmHg 45%

    Tomorrow, 23 February, Friday

    Time Temperature Precipitation Wind Pressure Humidity
    00:00 +5°C° 0 mm 1 mps 595 mmHg 45%
    01:00 +5°C° 0 mm 1 mps 595 mmHg 45%
    02:00 +4°C° 0 mm 1 mps 594 mmHg 45%
    03:00 +4°C° 0 mm 1 mps 594 mmHg 46%
    04:00 +4°C° 0 mm 1 mps 594 mmHg 46%
    05:00 +4°C° 0 mm 1 mps 593 mmHg 47%
    06:00 +4°C° 0 mm 1 mps 594 mmHg 46%
    07:00 +4°C° 0 mm 1 mps 594 mmHg 46%
    08:00 +5°C° 0 mm 1 mps 594 mmHg 46%
    09:00 +6°C° 0 mm 1 mps 595 mmHg 43%
    10:00 +7°C° 0 mm 1 mps 595 mmHg 41%
    11:00 +8°C° 0 mm 1 mps 596 mmHg 38%
    12:00 +9°C° 0 mm 1 mps 595 mmHg 40%
    13:00 +9°C° 0 mm 1 mps 595 mmHg 43%
    14:00 +8°C° 0 mm 2 mps 595 mmHg 45%
    15:00 +7°C° 0.3 mm 2 mps 594 mmHg 50%
    16:00 +7°C° 0.3 mm 2 mps 594 mmHg 55%
    17:00 +5°C° 0.3 mm 3 mps 594 mmHg 60%
    18:00 +5°C° 0.5 mm 3 mps 594 mmHg 63%
    19:00 +4°C° 0.5 mm 3 mps 594 mmHg 66%
    20:00 +4°C° 0.5 mm 3 mps 594 mmHg 70%
    21:00 +3°C° 0.9 mm 3 mps 594 mmHg 74%
    22:00 +3°C° 0.9 mm 3 mps 594 mmHg 77%
    23:00 +2°C° 0.9 mm 3 mps 593 mmHg 81%

    Day after tomorrow, 24 February, Saturday

    Time Temperature Precipitation Wind Pressure Humidity
    00:00 +2°C° 0.6 mm 3 mps 593 mmHg 83%
    01:00 +1°C° 0.6 mm 3 mps 593 mmHg 84%
    02:00 0°C° 0.6 mm 4 mps 593 mmHg 86%
    03:00 +1°C° 1 mm 3 mps 593 mmHg 88%
    04:00 +1°C° 1 mm 3 mps 593 mmHg 89%
    05:00 +2°C° 1 mm 2 mps 593 mmHg 91%
    06:00 +2°C° 0.3 mm 2 mps 593 mmHg 90%
    07:00 +2°C° 0.3 mm 2 mps 593 mmHg 90%
    08:00 +2°C° 0.3 mm 2 mps 594 mmHg 89%
    09:00 +2°C° 0.3 mm 2 mps 594 mmHg 88%
    10:00 +3°C° 0.3 mm 2 mps 594 mmHg 87%
    11:00 +4°C° 0.3 mm 2 mps 594 mmHg 85%
    12:00 +4°C° 0.2 mm 2 mps 594 mmHg 84%
    13:00 +5°C° 0.2 mm 1 mps 594 mmHg 83%
    14:00 +6°C° 0.2 mm 1 mps 594 mmHg 81%
    15:00 +6°C° 0.1 mm 1 mps 594 mmHg 81%
    16:00 +6°C° 0.1 mm 1 mps 594 mmHg 80%
    17:00 +6°C° 0.1 mm 1 mps 594 mmHg 79%
    18:00 +6°C° 0.1 mm 1 mps 594 mmHg 81%
    19:00 +6°C° 0.1 mm 1 mps 595 mmHg 82%
    20:00 +5°C° 0.1 mm 1 mps 595 mmHg 84%
    21:00 +5°C° 0 mm 1 mps 595 mmHg 84%
    22:00 +4°C° 0 mm 1 mps 596 mmHg 85%
    23:00 +4°C° 0 mm 1 mps 596 mmHg 85%

    25 February, Sunday

    Time Temperature Precipitation Wind Pressure Humidity
    00:00 +4°C° 0 mm 1 mps 596 mmHg 85%
    01:00 +3°C° 0 mm 1 mps 595 mmHg 85%
    02:00 +3°C° 0 mm 1 mps 595 mmHg 85%
    03:00 +3°C° 0 mm 1 mps 595 mmHg 84%
    04:00 +2°C° 0 mm 1 mps 595 mmHg 82%
    05:00 +2°C° 0 mm 1 mps 595 mmHg 81%
    06:00 +3°C° 0 mm 1 mps 595 mmHg 79%
    07:00 +3°C° 0 mm 1 mps 596 mmHg 76%
    08:00 +3°C° 0 mm 1 mps 597 mmHg 74%
    09:00 +5°C° 0 mm 1 mps 597 mmHg 71%
    10:00 +6°C° 0 mm 1 mps 598 mmHg 69%
    11:00 +7°C° 0 mm 1 mps 598 mmHg 67%
    12:00 +7°C° 0.2 mm 1 mps 598 mmHg 68%
    13:00 +8°C° 0.2 mm 1 mps 598 mmHg 69%
    14:00 +7°C° 0.2 mm 2 mps 598 mmHg 70%
    15:00 +6°C° 0.5 mm 2 mps 598 mmHg 72%
    16:00 +6°C° 0.5 mm 2 mps 597 mmHg 74%
    17:00 +5°C° 0.5 mm 3 mps 597 mmHg 76%
    18:00 +4°C° 0.4 mm 3 mps 597 mmHg 77%
    19:00 +5°C° 0.4 mm 2 mps 598 mmHg 78%
    20:00 +5°C° 0.4 mm 2 mps 598 mmHg 79%
    21:00 +4°C° 0.2 mm 2 mps 598 mmHg 80%
    22:00 +4°C° 0.2 mm 2 mps 598 mmHg 81%
    23:00 +4°C° 0.2 mm 2 mps 598 mmHg 81%

    26 February, Monday

    Time Temperature Precipitation Wind Pressure Humidity
    00:00 +4°C° 0.3 mm 2 mps 597 mmHg 82%
    01:00 +4°C° 0.3 mm 2 mps 597 mmHg 83%
    02:00 +4°C° 0.3 mm 2 mps 596 mmHg 84%
    03:00 +4°C° 0.5 mm 2 mps 596 mmHg 85%
    04:00 +4°C° 0.5 mm 2 mps 596 mmHg 86%
    05:00 +4°C° 0.5 mm 2 mps 596 mmHg 86%
    06:00 +4°C° 0.5 mm 2 mps 596 mmHg 86%
    07:00 +4°C° 0.5 mm 2 mps 596 mmHg 86%
    08:00 +4°C° 0.5 mm 2 mps 596 mmHg 86%
    09:00 +5°C° 0.2 mm 2 mps 597 mmHg 85%
    10:00 +5°C° 0.2 mm 2 mps 597 mmHg 84%
    11:00 +6°C° 0.2 mm 2 mps 597 mmHg 83%
    12:00 +7°C° 0.3 mm 2 mps 596 mmHg 81%
    13:00 +7°C° 0.3 mm 2 mps 596 mmHg 80%
    14:00 +8°C° 0.3 mm 2 mps 596 mmHg 78%
    15:00 +7°C° 0.6 mm 2 mps 596 mmHg 79%
    16:00 +7°C° 0.6 mm 2 mps 595 mmHg 80%
    17:00 +7°C° 0.6 mm 2 mps 595 mmHg 81%
    18:00 +6°C° 0.8 mm 2 mps 595 mmHg 82%
    19:00 +6°C° 0.8 mm 2 mps 595 mmHg 83%
    20:00 +6°C° 0.8 mm 2 mps 595 mmHg 84%
    21:00 +5°C° 0.6 mm 2 mps 595 mmHg 85%
    22:00 +5°C° 0.6 mm 2 mps 595 mmHg 85%
    23:00 +5°C° 0.6 mm 2 mps 595 mmHg 85%

    27 February, Tuesday

    Time Temperature Precipitation Wind Pressure Humidity
    00:00 +6°C° 0.2 mm 1 mps 595 mmHg 86%
    01:00 +6°C° 0.2 mm 1 mps 595 mmHg 86%
    02:00 +6°C° 0.2 mm 1 mps 595 mmHg 87%
    03:00 +6°C° 0.1 mm 1 mps 595 mmHg 87%
    04:00 +5°C° 0.1 mm 1 mps 595 mmHg 87%
    05:00 +5°C° 0.1 mm 1 mps 595 mmHg 87%
    06:00 +5°C° 0 mm 1 mps 595 mmHg 86%
    07:00 +5°C° 0 mm 1 mps 595 mmHg 85%
    08:00 +5°C° 0 mm 1 mps 596 mmHg 84%
    09:00 +6°C° 0 mm 1 mps 596 mmHg 82%
    10:00 +7°C° 0 mm 1 mps 596 mmHg 79%
    11:00 +7°C° 0 mm 1 mps 596 mmHg 77%
    12:00 +8°C° 0 mm 1 mps 596 mmHg 75%
    13:00 +8°C° 0 mm 1 mps 596 mmHg 74%
    14:00 +9°C° 0 mm 1 mps 596 mmHg 72%
    15:00 +9°C° 0 mm 1 mps 596 mmHg 70%
    16:00 +9°C° 0 mm 1 mps 596 mmHg 68%
    17:00 +9°C° 0 mm 1 mps 596 mmHg 66%
    18:00 +8°C° 0 mm 1 mps 596 mmHg 68%
    19:00 +7°C° 0 mm 1 mps 596 mmHg 69%
    20:00 +6°C° 0 mm 1 mps 596 mmHg 70%
    21:00 +6°C° 0 mm 1 mps 596 mmHg 71%
    22:00 +5°C° 0 mm 1 mps 596 mmHg 71%
    23:00 +5°C° 0 mm 1 mps 596 mmHg 72%
    Show more